Weather History for K06D - October, 2012

Change the Weather History Date:

Monday, October 8, 2012

  Actual Average (KRUG) Record (KRUG)
Temperature  
Mean Temperature 40 °F -  
Max Temperature 46 °F 59 °F 83 °F (1960)
Min Temperature 35 °F 34 °F 12 °F (1985)
Degree Days  
Heating Degree Days 24    
Moisture  
Dew Point 35 °F    
Average Humidity 83    
Maximum Humidity 100    
Minimum Humidity 57    
Precipitation  
Precipitation 0.08 in - - ()
Sea Level Pressure  
Sea Level Pressure 29.59 in    
Wind  
Wind Speed 10 mph (WNW)    
Max Wind Speed 24 mph    
Max Gust Speed 33 mph    
Visibility 10 miles    
Events Rain    
Averages and records for this station are not official NWS values.
T = Trace of Precipitation, MM = Missing Value Source: NWS Daily Summary

Daily Weather History Graph

Daily Weather History Graph

Search for Another Location

Airport or City:

Trip Planner

Search our weather history database for the weather conditions in past years. The results will help you decide how hot, cold, wet, or windy it might be!

Date:

Astronomy

Oct. 08, 2012 Rise Set
Actual Time 7:49 AM CDT 7:01 PM CDT
Civil Twilight 7:17 AM CDT 7:33 PM CDT
Nautical Twilight 6:40 AM CDT 8:09 PM CDT
Astronomical Twilight 6:04 AM CDT 8:46 PM CDT
Moon No Moon Rise 3:23 PM CDT
Length of Visible Light 12h 15m
Length of Day
11h 12m
Last Quarter, 46% of the Moon is Illuminated
Oct 8
Last Quarter
Oct 15
New
Oct 21
First Quarter
Oct 29
Full
Nov 6
Last Quarter

Hourly Weather History & Observations

Time (CDT) Temp. Windchill Dew Point Humidity Pressure Visibility Wind Dir Wind Speed Gust Speed Precip Events Conditions
12:15 AM 39.2 °F 35.0 °F 30.2 °F 70% 29.68 in 10.0 mi SSW 5.8 mph - N/A   Overcast
12:35 AM 39.2 °F 35.0 °F 30.2 °F 70% 29.67 in 10.0 mi SSW 5.8 mph - N/A   Overcast
12:55 AM 39.2 °F 35.0 °F 32.0 °F 75% 29.66 in 10.0 mi South 5.8 mph - N/A   Overcast
1:15 AM 39.2 °F 35.9 °F 32.0 °F 75% 29.65 in 10.0 mi South 4.6 mph - N/A   Overcast
1:35 AM 39.2 °F 34.2 °F 32.0 °F 75% 29.63 in 10.0 mi South 6.9 mph - N/A   Overcast
1:55 AM 39.2 °F 35.0 °F 32.0 °F 75% 29.63 in 10.0 mi SSW 5.8 mph - N/A   Overcast
2:15 AM 39.2 °F 35.9 °F 32.0 °F 75% 29.62 in 10.0 mi South 4.6 mph - N/A   Overcast
2:35 AM 39.2 °F 34.2 °F 32.0 °F 75% 29.61 in 10.0 mi SSW 6.9 mph - N/A   Overcast
2:55 AM 39.2 °F 33.0 °F 32.0 °F 75% 29.61 in 10.0 mi SSW 9.2 mph - N/A   Overcast
3:15 AM 39.2 °F 34.2 °F 32.0 °F 75% 29.60 in 10.0 mi SSW 6.9 mph - N/A   Overcast
3:35 AM 39.2 °F 33.6 °F 35.6 °F 87% 29.59 in 10.0 mi SSW 8.1 mph - N/A Rain Light Rain
3:55 AM 39.2 °F 37.0 °F 35.6 °F 87% 29.58 in 9.0 mi South 3.5 mph - 0.01 in Rain Light Rain
4:15 AM 39.2 °F 35.9 °F 37.4 °F 93% 29.56 in 10.0 mi ESE 4.6 mph - N/A   Overcast
4:35 AM 39.2 °F - 37.4 °F 93% 29.56 in 10.0 mi Calm Calm - N/A   Overcast
4:55 AM 39.2 °F 37.0 °F 39.2 °F 100% 29.55 in 10.0 mi East 3.5 mph - N/A   Overcast
5:15 AM 39.2 °F 35.9 °F 39.2 °F 100% 29.54 in 10.0 mi ESE 4.6 mph - N/A Rain Light Rain
5:35 AM 39.2 °F 35.0 °F 39.2 °F 100% 29.53 in 10.0 mi East 5.8 mph - N/A   Overcast
5:55 AM 37.4 °F 34.9 °F 37.4 °F 100% 29.54 in 5.0 mi East 3.5 mph - 0.01 in Rain Light Rain
6:15 AM 37.4 °F 32.8 °F 37.4 °F 100% 29.53 in 5.0 mi ESE 5.8 mph - 0.01 in Rain Light Rain
6:35 AM 37.4 °F 32.8 °F 37.4 °F 100% 29.52 in 10.0 mi SE 5.8 mph - 0.01 in   Overcast
6:55 AM 37.4 °F 34.9 °F 37.4 °F 100% 29.52 in 10.0 mi ESE 3.5 mph - 0.01 in   Overcast
7:15 AM 37.4 °F 32.8 °F 37.4 °F 100% 29.52 in 10.0 mi NNW 5.8 mph - N/A   Mostly Cloudy
7:35 AM 37.4 °F 33.8 °F 37.4 °F 100% 29.53 in 10.0 mi NNW 4.6 mph - N/A   Overcast
7:55 AM 39.2 °F 35.0 °F 39.2 °F 100% 29.53 in 10.0 mi NNW 5.8 mph - N/A   Overcast
8:15 AM 37.4 °F 32.1 °F 37.4 °F 100% 29.53 in 10.0 mi NNW 6.9 mph - N/A   Overcast
8:35 AM 37.4 °F 32.8 °F 37.4 °F 100% 29.54 in 10.0 mi North 5.8 mph - N/A   Overcast
8:55 AM 39.2 °F 35.0 °F 39.2 °F 100% 29.54 in 10.0 mi NNW 5.8 mph - N/A   Overcast
9:15 AM 39.2 °F 31.6 °F 39.2 °F 100% 29.55 in 10.0 mi NNW 12.7 mph - N/A   Overcast
9:35 AM 39.2 °F 31.2 °F 39.2 °F 100% 29.56 in 10.0 mi NNW 13.8 mph - N/A   Overcast
9:55 AM 39.2 °F 31.2 °F 39.2 °F 100% 29.56 in 10.0 mi NNW 13.8 mph 21.9 mph N/A   Overcast
10:15 AM 39.2 °F 31.6 °F 39.2 °F 100% 29.57 in 10.0 mi NNW 12.7 mph - N/A   Overcast
10:35 AM 41.0 °F 32.8 °F 41.0 °F 100% 29.58 in 10.0 mi NNW 16.1 mph 21.9 mph N/A   Overcast
10:55 AM 41.0 °F 33.5 °F 41.0 °F 100% 29.58 in 10.0 mi NNW 13.8 mph - N/A   Overcast
11:15 AM 41.0 °F 31.6 °F 41.0 °F 100% 29.58 in 10.0 mi NW 20.7 mph 25.3 mph N/A   Overcast
11:35 AM 44.6 °F 36.9 °F 41.0 °F 87% 29.58 in 10.0 mi NW 18.4 mph 24.2 mph N/A   Overcast
11:55 AM 44.6 °F 35.7 °F 41.0 °F 87% 29.58 in 10.0 mi NW 24.2 mph 31.1 mph N/A   Overcast
12:15 PM 44.6 °F 36.1 °F 39.2 °F 81% 29.58 in 10.0 mi NW 21.9 mph 31.1 mph N/A   Overcast
12:55 PM 44.6 °F 36.4 °F 37.4 °F 76% 29.59 in 10.0 mi WNW 20.7 mph 26.5 mph N/A   Overcast
1:15 PM 46.4 °F 39.8 °F 37.4 °F 71% 29.58 in 10.0 mi NNW 16.1 mph 24.2 mph N/A   Overcast
1:35 PM 42.8 °F 33.8 °F 39.2 °F 87% 29.59 in 5.0 mi WNW 21.9 mph 28.8 mph 0.01 in Rain Light Rain
1:55 PM 44.6 °F 36.9 °F 39.2 °F 81% 29.58 in 10.0 mi WNW 18.4 mph - 0.01 in   Mostly Cloudy
2:15 PM 42.8 °F 34.8 °F 39.2 °F 87% 29.59 in 2.5 mi WNW 17.3 mph - 0.03 in Rain Light Rain
2:35 PM 44.6 °F 36.9 °F 41.0 °F 87% 29.59 in 10.0 mi WNW 18.4 mph 21.9 mph 0.03 in   Scattered Clouds
2:55 PM 42.8 °F 34.0 °F 39.2 °F 87% 29.59 in 6.0 mi WNW 20.7 mph - 0.04 in Rain Rain
3:15 PM 44.6 °F 36.6 °F 39.2 °F 81% 29.59 in 10.0 mi WNW 19.6 mph 25.3 mph N/A   Mostly Cloudy
3:35 PM 44.6 °F 36.6 °F 37.4 °F 76% 29.59 in 10.0 mi WNW 19.6 mph 28.8 mph N/A   Overcast
3:55 PM 46.4 °F 38.5 °F 37.4 °F 71% 29.59 in 10.0 mi NW 21.9 mph - N/A   Mostly Cloudy
4:15 PM 44.6 °F 37.2 °F 37.4 °F 76% 29.60 in 10.0 mi WNW 17.3 mph - N/A   Mostly Cloudy
4:35 PM 44.6 °F 36.4 °F 33.8 °F 66% 29.60 in 10.0 mi WNW 20.7 mph 33.4 mph N/A   Overcast
4:55 PM 44.6 °F 37.2 °F 33.8 °F 66% 29.60 in 10.0 mi WNW 17.3 mph 27.6 mph N/A   Mostly Cloudy
5:15 PM 44.6 °F 35.7 °F 32.0 °F 61% 29.61 in 10.0 mi NW 24.2 mph 31.1 mph N/A   Mostly Cloudy
5:35 PM 44.6 °F 36.4 °F 32.0 °F 61% 29.61 in 10.0 mi WNW 20.7 mph 28.8 mph N/A   Mostly Cloudy
5:55 PM 44.6 °F 37.8 °F 32.0 °F 61% 29.61 in 10.0 mi WNW 15.0 mph 21.9 mph N/A   Mostly Cloudy
6:15 PM 44.6 °F 36.9 °F 32.0 °F 61% 29.62 in 10.0 mi WNW 18.4 mph 23.0 mph N/A   Overcast
6:55 PM 44.6 °F 36.4 °F 30.2 °F 57% 29.62 in 10.0 mi WNW 20.7 mph 26.5 mph N/A   Overcast
7:35 PM 41.0 °F 32.8 °F 32.0 °F 70% 29.64 in 10.0 mi WNW 16.1 mph - N/A   Overcast
7:55 PM 41.0 °F 33.5 °F 28.4 °F 61% 29.64 in 10.0 mi WNW 13.8 mph 23.0 mph N/A   Scattered Clouds
8:15 PM 41.0 °F 31.1 °F 28.4 °F 61% 29.64 in 10.0 mi WNW 23.0 mph 32.2 mph N/A   Mostly Cloudy
8:35 PM 41.0 °F 30.9 °F 30.2 °F 65% 29.64 in 10.0 mi WNW 24.2 mph 31.1 mph N/A   Overcast
8:55 PM 39.2 °F 30.5 °F 32.0 °F 75% 29.63 in 10.0 mi WNW 16.1 mph 23.0 mph N/A   Mostly Cloudy
9:15 PM 39.2 °F 29.8 °F 32.0 °F 75% 29.63 in 10.0 mi WNW 18.4 mph 24.2 mph N/A   Overcast
9:35 PM 37.4 °F 26.6 °F 32.0 °F 81% 29.64 in 10.0 mi WNW 21.9 mph 29.9 mph N/A Rain Light Rain
9:55 PM 37.4 °F 27.2 °F 32.0 °F 81% 29.63 in 10.0 mi WNW 19.6 mph 26.5 mph N/A   Mostly Cloudy
10:15 PM 37.4 °F 28.2 °F 32.0 °F 81% 29.63 in 10.0 mi WNW 16.1 mph 21.9 mph N/A   Mostly Cloudy
10:55 PM 37.4 °F 28.2 °F 32.0 °F 81% 29.63 in 10.0 mi WNW 16.1 mph 28.8 mph N/A   Overcast
11:35 PM 35.6 °F 24.8 °F 28.4 °F 75% 29.63 in 10.0 mi WNW 19.6 mph 24.2 mph N/A   Overcast
11:55 PM 35.6 °F 26.6 °F 30.2 °F 81% 29.63 in 10.0 mi WNW 13.8 mph - N/A   Overcast